User: anonymous
Location: *
(90.0000°N, 180.0000°W)
Time: 17:52:08
(UTC+02:00)
Language:

Cosmos 1825 - Orbit

View from above orbital plane
View from above orbital plane
View from above satellite
View from above satellite

Ground track
Ground track

The orbit data is extracted from the following two-line orbital elements,

1 17566U 87024A   14203.16691978  .00000847  00000-0  46898-4 0   475
2 17566 082.5066 258.5498 0003395 293.7141 121.3244 15.12522073493047
Epoch (UTC): 22 July 2014 04:00:21
Eccentricity: 0.0003395
inclination: 82.5066°
perigee height: 526 km
apogee height: 531 km
right ascension of ascending node: 258.5498°
argument of perigee: 293.7141°
revolutions per day: 15.12522073
mean anomaly at epoch: 121.3244°
orbit number at epoch: 49304

The dashed part of the orbit path shows where the satellite is in the earth's shadow,  

DLR